TimeEST,TemperatureF,Dew PointF,Humidity,Sea Level PressureIn,VisibilityMPH,Wind Direction,Wind SpeedMPH,Gust SpeedMPH,PrecipitationIn,Events,Conditions,WindDirDegrees,DateUTC
12:15 AM,34.0,32.0,92,30.29,7.0,ENE,5.8,-,N/A,,Overcast,60,2014-02-12 05:15:00
12:35 AM,34.0,32.0,92,30.29,7.0,ENE,4.6,-,N/A,,Overcast,60,2014-02-12 05:35:00
12:55 AM,34.0,32.0,92,30.29,7.0,ENE,5.8,-,N/A,,Overcast,70,2014-02-12 05:55:00
1:15 AM,34.0,32.0,92,30.28,7.0,East,4.6,-,N/A,,Overcast,80,2014-02-12 06:15:00
1:35 AM,34.0,32.2,93,30.27,5.0,ENE,4.6,-,N/A,,Overcast,60,2014-02-12 06:35:00
1:55 AM,34.0,32.2,93,30.28,5.0,Calm,Calm,-,N/A,,Overcast,0,2014-02-12 06:55:00
2:15 AM,34.2,32.0,92,30.28,5.0,Calm,Calm,-,N/A,,Overcast,0,2014-02-12 07:15:00
2:35 AM,34.2,32.2,92,30.28,4.0,Calm,Calm,-,N/A,Snow,Light Snow,0,2014-02-12 07:35:00
2:55 AM,34.0,32.2,93,30.26,2.5,Calm,Calm,-,N/A,Snow,Light Snow,0,2014-02-12 07:55:00
3:15 AM,33.8,32.2,94,30.25,2.0,Calm,Calm,-,N/A,Snow,Light Snow,0,2014-02-12 08:15:00
3:35 AM,33.4,31.6,93,30.25,3.0,Calm,Calm,-,N/A,Snow,Light Snow,0,2014-02-12 08:35:00
3:55 AM,33.3,32.0,95,30.24,2.5,Calm,Calm,-,N/A,Snow,Light Snow,0,2014-02-12 08:55:00
4:15 AM,33.1,32.0,96,30.25,2.0,Calm,Calm,-,N/A,Snow,Light Snow,0,2014-02-12 09:15:00
4:35 AM,32.9,32.0,96,30.25,1.2,Calm,Calm,-,N/A,Snow,Light Snow,0,2014-02-12 09:35:00
4:55 AM,32.5,32.0,98,30.25,1.2,Calm,Calm,-,N/A,Snow,Light Snow,0,2014-02-12 09:55:00
5:15 AM,32.0,31.6,99,30.25,1.0,Calm,Calm,-,N/A,Snow,Light Snow,0,2014-02-12 10:15:00
5:35 AM,32.0,31.1,96,30.24,1.2,Calm,Calm,-,N/A,Snow,Light Snow,0,2014-02-12 10:35:00
5:55 AM,31.5,30.2,95,30.25,2.0,Calm,Calm,-,N/A,Snow,Light Snow,0,2014-02-12 10:55:00
6:15 AM,31.1,28.0,88,30.26,2.5,Calm,Calm,-,N/A,Snow,Light Snow,0,2014-02-12 11:15:00
6:35 AM,30.7,27.9,89,30.28,2.0,Calm,Calm,-,N/A,Snow,Light Snow,0,2014-02-12 11:35:00
6:55 AM,30.7,28.2,90,30.28,2.0,Calm,Calm,-,N/A,Snow,Light Snow,0,2014-02-12 11:55:00
7:15 AM,30.4,28.2,92,30.28,1.5,Calm,Calm,-,N/A,Snow,Light Snow,0,2014-02-12 12:15:00
7:35 AM,29.7,27.5,92,30.28,1.2,Calm,Calm,-,N/A,Snow,Light Snow,0,2014-02-12 12:35:00
7:55 AM,29.3,27.5,93,30.29,0.8,Calm,Calm,-,N/A,Snow,Light Snow,0,2014-02-12 12:55:00
8:15 AM,28.9,27.5,94,30.29,0.8,Calm,Calm,-,N/A,Snow,Light Snow,0,2014-02-12 13:15:00
8:35 AM,28.9,27.3,94,30.29,1.0,Calm,Calm,-,N/A,Snow,Light Snow,0,2014-02-12 13:35:00
8:55 AM,28.9,27.3,94,30.28,1.2,Calm,Calm,-,N/A,Snow,Light Snow,0,2014-02-12 13:55:00
9:15 AM,29.1,27.0,92,30.27,1.5,Calm,Calm,-,N/A,Snow,Light Snow,0,2014-02-12 14:15:00
9:35 AM,29.3,27.1,92,30.24,1.8,Calm,Calm,-,N/A,Snow,Light Snow,0,2014-02-12 14:35:00
9:55 AM,29.3,26.6,90,30.23,2.0,Calm,Calm,-,N/A,Snow,Light Snow,0,2014-02-12 14:55:00
10:15 AM,29.3,26.4,89,30.22,2.5,Calm,Calm,-,N/A,Snow,Light Snow,0,2014-02-12 15:15:00
10:35 AM,29.8,26.4,87,30.21,2.5,Calm,Calm,-,N/A,Snow,Light Snow,0,2014-02-12 15:35:00
10:55 AM,29.8,26.6,88,30.20,3.0,Calm,Calm,-,N/A,Snow,Light Snow,0,2014-02-12 15:55:00
11:15 AM,30.0,26.6,87,30.19,2.5,Calm,Calm,-,N/A,Snow,Light Snow,0,2014-02-12 16:15:00
11:35 AM,30.2,26.2,85,30.19,5.0,Calm,Calm,-,N/A,Snow,Light Snow,0,2014-02-12 16:35:00
11:55 AM,30.6,26.6,85,30.19,5.0,Calm,Calm,-,N/A,,Overcast,0,2014-02-12 16:55:00
12:15 PM,30.6,26.6,85,30.18,5.0,Calm,Calm,-,N/A,,Overcast,0,2014-02-12 17:15:00
12:35 PM,30.2,27.0,88,30.18,4.0,Calm,Calm,-,N/A,,Overcast,0,2014-02-12 17:35:00
12:55 PM,30.6,27.0,86,30.17,4.0,Calm,Calm,-,N/A,Snow,Light Snow,0,2014-02-12 17:55:00
1:15 PM,30.2,26.6,86,30.16,1.8,Calm,Calm,-,N/A,,Overcast,0,2014-02-12 18:15:00
1:35 PM,30.2,27.5,90,30.11,1.2,Calm,Calm,-,N/A,,Overcast,0,2014-02-12 18:35:00
1:55 PM,30.2,27.5,90,30.08,1.8,Calm,Calm,-,N/A,,Overcast,0,2014-02-12 18:55:00
2:15 PM,30.0,28.2,93,30.05,2.0,Calm,Calm,-,N/A,,Overcast,0,2014-02-12 19:15:00
2:35 PM,30.2,28.4,93,30.04,1.8,Calm,Calm,-,N/A,,Overcast,0,2014-02-12 19:35:00
2:55 PM,30.2,28.2,92,30.02,1.8,Calm,Calm,-,N/A,,Overcast,0,2014-02-12 19:55:00
3:15 PM,30.4,28.4,92,30.00,2.0,Calm,Calm,-,N/A,Snow,Light Snow,0,2014-02-12 20:15:00
3:35 PM,30.7,28.8,92,29.98,3.0,Calm,Calm,-,N/A,Snow,Light Snow,0,2014-02-12 20:35:00
3:55 PM,31.3,29.5,93,29.96,3.0,Calm,Calm,-,N/A,,Overcast,0,2014-02-12 20:55:00
4:15 PM,31.8,30.2,94,29.95,2.0,Calm,Calm,-,N/A,Snow,Light Snow,0,2014-02-12 21:15:00
4:35 PM,32.0,30.7,95,29.94,2.0,Calm,Calm,-,N/A,,Overcast,0,2014-02-12 21:35:00
4:55 PM,32.0,31.5,98,29.92,1.8,Calm,Calm,-,N/A,Snow,Light Snow,0,2014-02-12 21:55:00
5:15 PM,32.4,31.8,98,29.90,1.8,Calm,Calm,-,N/A,Snow,Light Snow,0,2014-02-12 22:15:00
5:35 PM,32.9,32.0,96,29.90,1.8,Calm,Calm,-,N/A,,Overcast,0,2014-02-12 22:35:00
5:55 PM,32.9,32.0,96,29.89,1.8,Calm,Calm,-,N/A,,Overcast,0,2014-02-12 22:55:00
6:15 PM,33.1,32.4,97,29.89,2.5,Calm,Calm,-,N/A,Snow,Light Snow,0,2014-02-12 23:15:00
6:35 PM,33.4,32.9,98,29.89,2.5,Calm,Calm,-,N/A,,Overcast,0,2014-02-12 23:35:00
6:55 PM,33.4,32.9,98,29.89,2.0,Calm,Calm,-,N/A,Snow,Light Snow,0,2014-02-12 23:55:00
7:15 PM,33.8,32.9,96,29.89,2.0,Calm,Calm,-,N/A,Snow,Light Snow,0,2014-02-13 00:15:00
7:35 PM,33.8,32.9,96,29.89,2.5,Calm,Calm,-,N/A,Snow,Light Snow,0,2014-02-13 00:35:00
7:55 PM,33.3,32.4,96,29.89,3.0,Calm,Calm,-,N/A,Snow,Light Snow,0,2014-02-13 00:55:00
8:15 PM,32.9,32.0,96,29.89,2.5,Calm,Calm,-,N/A,Snow,Light Snow,0,2014-02-13 01:15:00
8:35 PM,32.7,32.0,97,29.89,1.8,Calm,Calm,-,N/A,Snow,Light Snow,0,2014-02-13 01:35:00
8:55 PM,32.4,32.0,99,29.89,1.5,Calm,Calm,-,N/A,Snow,Light Snow,0,2014-02-13 01:55:00
9:15 PM,32.4,32.0,99,29.88,2.5,Calm,Calm,-,N/A,Snow,Light Snow,0,2014-02-13 02:15:00
9:35 PM,32.4,32.0,99,29.87,1.8,Calm,Calm,-,N/A,,Overcast,0,2014-02-13 02:35:00
9:55 PM,32.4,32.0,99,29.85,1.8,Calm,Calm,-,N/A,Snow,Light Snow,0,2014-02-13 02:55:00
10:15 PM,32.2,32.0,99,29.84,1.8,Calm,Calm,-,N/A,Snow,Light Snow,0,2014-02-13 03:15:00
10:35 PM,32.4,32.0,99,29.84,2.0,Calm,Calm,-,N/A,Snow,Light Snow,0,2014-02-13 03:35:00
10:55 PM,32.4,32.0,99,29.83,2.0,Calm,Calm,-,N/A,,Overcast,0,2014-02-13 03:55:00
11:15 PM,32.5,32.0,98,29.82,2.0,Calm,Calm,-,N/A,,Overcast,0,2014-02-13 04:15:00
11:35 PM,32.9,32.4,98,29.80,1.8,Calm,Calm,-,N/A,Snow,Light Snow,0,2014-02-13 04:35:00
11:55 PM,33.1,32.7,99,29.77,1.5,Calm,Calm,-,N/A,Snow,Light Snow,0,2014-02-13 04:55:00